TimeEST,TemperatureF,Dew PointF,Humidity,Sea Level PressureIn,VisibilityMPH,Wind Direction,Wind SpeedMPH,Gust SpeedMPH,PrecipitationIn,Events,Conditions,WindDirDegrees,DateUTC
12:00 AM,37.4,37.4,100,30.07,4.0,ESE,4.6,-,0.01,Rain,Rain,110,2013-01-16 05:00:00
12:17 AM,37.4,37.4,100,30.07,3.0,ESE,5.8,-,0.03,Rain,Light Rain,120,2013-01-16 05:17:00
12:37 AM,37.4,37.4,100,30.06,2.5,ESE,5.8,-,0.03,,Drizzle,120,2013-01-16 05:37:00
12:56 AM,37.4,37.4,100,30.07,5.0,East,3.5,-,N/A,,Drizzle,90,2013-01-16 05:56:00
1:17 AM,37.4,37.4,100,30.06,4.0,East,3.5,-,0.01,,Drizzle,90,2013-01-16 06:17:00
1:57 AM,37.4,37.4,100,30.07,7.0,SE,3.5,-,N/A,Rain,Rain,130,2013-01-16 06:57:00
2:37 AM,37.4,37.4,100,30.05,1.2,Calm,Calm,-,0.02,Rain,Light Rain,0,2013-01-16 07:37:00
2:57 AM,37.4,37.4,100,30.04,10.0,Calm,Calm,-,N/A,Rain,Light Rain,0,2013-01-16 07:57:00
3:17 AM,37.4,37.4,100,30.03,10.0,Calm,Calm,-,N/A,,Light Drizzle,0,2013-01-16 08:17:00
4:37 AM,37.4,37.4,100,30.00,10.0,Calm,Calm,-,N/A,,Overcast,0,2013-01-16 09:37:00
5:03 AM,37.4,37.4,100,29.99,10.0,ESE,3.5,-,N/A,,Overcast,110,2013-01-16 10:03:00
5:21 AM,37.4,37.4,100,30.00,7.0,Calm,Calm,-,N/A,,Drizzle,0,2013-01-16 10:21:00
5:36 AM,37.4,37.4,100,29.99,1.5,Calm,Calm,-,0.01,Rain,Rain,0,2013-01-16 10:36:00
6:01 AM,37.4,37.4,100,29.98,5.0,ESE,4.6,-,0.01,Rain,Rain,120,2013-01-16 11:01:00
6:37 AM,37.4,37.4,100,29.99,3.0,ESE,3.5,-,0.11,Snow,Light Snow,110,2013-01-16 11:37:00
7:02 AM,37.4,37.4,100,29.99,3.0,Calm,Calm,-,N/A,,Heavy Drizzle,0,2013-01-16 12:02:00
7:16 AM,37.4,37.4,100,30.00,4.0,Calm,Calm,-,0.02,Rain,Light Rain,0,2013-01-16 12:16:00
7:41 AM,37.4,37.4,100,30.00,10.0,Calm,Calm,-,0.03,,Overcast,0,2013-01-16 12:41:00
7:57 AM,37.4,37.4,100,30.02,10.0,Calm,Calm,-,N/A,,Overcast,0,2013-01-16 12:57:00
8:17 AM,37.4,37.4,100,30.03,1.5,Calm,Calm,-,0.09,,Overcast,0,2013-01-16 13:17:00
8:41 AM,37.4,37.4,100,30.03,2.5,Calm,Calm,-,0.12,Rain,Rain,0,2013-01-16 13:41:00
9:01 AM,39.2,39.2,100,30.05,7.0,Calm,Calm,-,N/A,,Drizzle,0,2013-01-16 14:01:00
9:37 AM,39.2,39.2,100,30.04,-9999.0,Calm,Calm,-,0.02,,Overcast,0,2013-01-16 14:37:00
10:04 AM,41.0,41.0,100,30.05,7.0,SSW,3.5,-,N/A,,Light Drizzle,200,2013-01-16 15:04:00
10:22 AM,42.8,42.8,100,30.05,10.0,Calm,Calm,-,N/A,Rain,Light Rain,0,2013-01-16 15:22:00
10:37 AM,42.8,42.8,100,30.04,10.0,Calm,Calm,-,N/A,,Light Drizzle,0,2013-01-16 15:37:00
10:57 AM,42.8,42.8,100,30.02,10.0,South,4.6,-,N/A,,Overcast,170,2013-01-16 15:57:00
11:17 AM,42.8,42.8,100,29.99,10.0,Calm,Calm,-,N/A,,Overcast,0,2013-01-16 16:17:00
11:41 AM,44.6,44.6,100,29.98,10.0,Calm,Calm,-,N/A,,Overcast,0,2013-01-16 16:41:00
12:01 PM,44.6,44.6,100,29.97,10.0,Calm,Calm,-,N/A,,Overcast,0,2013-01-16 17:01:00
12:17 PM,44.6,44.6,100,29.97,7.0,Calm,Calm,-,N/A,,Overcast,0,2013-01-16 17:17:00
12:36 PM,44.6,44.6,100,29.96,4.0,WNW,3.5,-,N/A,,Overcast,300,2013-01-16 17:36:00
12:57 PM,44.6,44.6,100,29.95,4.0,WNW,5.8,-,N/A,,Overcast,300,2013-01-16 17:57:00
1:20 PM,44.6,44.6,100,29.94,5.0,Calm,Calm,-,N/A,,Overcast,0,2013-01-16 18:20:00
1:43 PM,46.4,46.4,100,29.94,4.0,Calm,Calm,-,N/A,,Overcast,0,2013-01-16 18:43:00
1:57 PM,46.4,46.4,100,29.95,5.0,WNW,4.6,-,N/A,,Overcast,300,2013-01-16 18:57:00
2:16 PM,46.4,46.4,100,29.95,10.0,WNW,3.5,-,N/A,,Overcast,290,2013-01-16 19:16:00
2:41 PM,48.2,48.2,100,29.96,10.0,Calm,Calm,-,N/A,,Overcast,0,2013-01-16 19:41:00
2:56 PM,50.0,50.0,100,29.96,10.0,Calm,Calm,-,N/A,,Overcast,0,2013-01-16 19:56:00
3:21 PM,51.8,51.8,100,29.96,10.0,Calm,Calm,-,N/A,,Overcast,0,2013-01-16 20:21:00
4:03 PM,51.8,51.8,100,29.95,10.0,South,4.6,-,N/A,Rain,Light Rain,180,2013-01-16 21:03:00
4:56 PM,51.8,51.8,100,29.95,10.0,Calm,Calm,-,N/A,,Overcast,0,2013-01-16 21:56:00
5:17 PM,50.0,50.0,100,29.96,10.0,West,3.5,-,N/A,,Overcast,270,2013-01-16 22:17:00
6:37 PM,50.0,50.0,100,30.00,10.0,West,4.6,-,N/A,,Overcast,260,2013-01-16 23:37:00
7:01 PM,48.2,48.2,100,30.02,10.0,WNW,10.4,-,N/A,,Overcast,300,2013-01-17 00:01:00
7:37 PM,46.4,46.4,100,30.02,10.0,West,3.5,-,N/A,Rain,Rain,280,2013-01-17 00:37:00
7:57 PM,44.6,44.6,100,30.02,10.0,West,3.5,-,N/A,,Light Drizzle,260,2013-01-17 00:57:00
8:17 PM,44.6,44.6,100,30.02,10.0,WSW,3.5,-,N/A,Rain,Light Rain,240,2013-01-17 01:17:00
8:40 PM,44.6,44.6,100,30.01,10.0,West,3.5,-,N/A,,Light Drizzle,280,2013-01-17 01:40:00
8:57 PM,44.6,44.6,100,30.01,10.0,WNW,3.5,-,N/A,,Overcast,290,2013-01-17 01:57:00
9:20 PM,44.6,44.6,100,30.02,10.0,NW,5.8,-,N/A,,Overcast,310,2013-01-17 02:20:00
9:43 PM,44.6,44.6,100,30.02,10.0,West,4.6,-,N/A,,Overcast,280,2013-01-17 02:43:00
10:00 PM,44.6,44.6,100,30.02,10.0,Calm,Calm,-,N/A,,Overcast,0,2013-01-17 03:00:00
10:19 PM,44.6,44.6,100,30.02,10.0,West,3.5,-,N/A,,Overcast,260,2013-01-17 03:19:00
10:42 PM,44.6,44.6,100,30.01,10.0,West,4.6,-,N/A,Rain,Rain,270,2013-01-17 03:42:00
10:59 PM,44.6,44.6,100,30.02,10.0,West,3.5,-,N/A,Rain,Rain,280,2013-01-17 03:59:00
11:17 PM,44.6,44.6,100,30.02,10.0,West,4.6,-,N/A,Rain,Rain,270,2013-01-17 04:17:00
11:40 PM,44.6,44.6,100,30.02,10.0,West,4.6,-,0.01,Rain,Light Rain,270,2013-01-17 04:40:00
11:57 PM,44.6,44.6,100,30.02,10.0,West,4.6,-,0.01,Rain,Light Rain,270,2013-01-17 04:57:00